TimeCET,TemperatureF,Dew PointF,Humidity,Sea Level PressureIn,VisibilityMPH,Wind Direction,Wind SpeedMPH,Gust SpeedMPH,PrecipitationIn,Events,Conditions,WindDirDegrees,DateUTC
12:00 AM,42.8,39.2,87,29.77,6.2,Variable,2.3,-,N/A,,Overcast,0,2012-12-27 23:00:00
1:00 AM,41.0,39.2,93,29.77,6.2,Calm,Calm,-,N/A,,Overcast,0,2012-12-28 00:00:00
2:00 AM,42.8,41.0,93,29.83,6.2,WSW,8.1,-,N/A,Rain,Light Rain,250,2012-12-28 01:00:00
3:00 AM,41.0,39.2,93,29.83,6.2,WSW,3.5,-,N/A,Rain,Light Rain,250,2012-12-28 02:00:00
4:00 AM,41.0,41.0,100,29.86,6.2,Variable,1.2,-,N/A,Rain,Light Rain,0,2012-12-28 03:00:00
5:00 AM,41.0,41.0,100,29.89,6.2,Variable,1.2,-,N/A,Rain,Light Rain,0,2012-12-28 04:00:00
7:00 AM,41.0,39.2,93,30.01,6.2,Variable,2.3,-,N/A,Rain,Light Rain,0,2012-12-28 06:00:00
8:00 AM,41.0,39.2,93,30.09,6.2,Variable,2.3,-,N/A,,Overcast,0,2012-12-28 07:00:00
9:00 AM,39.2,35.6,87,30.15,6.2,North,4.6,-,N/A,Rain,Light Rain,350,2012-12-28 08:00:00
10:00 AM,37.4,33.8,87,30.21,6.2,NNE,6.9,-,N/A,Rain,Light Rain,20,2012-12-28 09:00:00
11:00 AM,35.6,30.2,81,30.27,6.2,Variable,2.3,-,N/A,,Overcast,0,2012-12-28 10:00:00
12:00 PM,35.6,26.6,70,30.33,6.2,North,3.5,-,N/A,,Overcast,360,2012-12-28 11:00:00
1:00 PM,33.8,19.4,56,30.33,6.2,NNW,3.5,-,N/A,,Mostly Cloudy,340,2012-12-28 12:00:00
2:00 PM,33.8,24.8,70,30.36,6.2,NW,3.5,-,N/A,,Scattered Clouds,310,2012-12-28 13:00:00
3:00 PM,33.8,26.6,75,30.36,6.2,West,6.9,-,N/A,,Partly Cloudy,280,2012-12-28 14:00:00
4:00 PM,32.0,24.8,75,30.39,-9999.0,West,5.8,-,N/A,,Clear,270,2012-12-28 15:00:00
5:00 PM,30.2,24.8,80,30.42,-9999.0,West,3.5,-,N/A,,Clear,280,2012-12-28 16:00:00
6:00 PM,28.4,24.8,86,30.45,-9999.0,West,3.5,-,N/A,,Clear,260,2012-12-28 17:00:00
7:00 PM,26.6,24.8,93,30.45,-9999.0,Calm,Calm,-,N/A,,Clear,0,2012-12-28 18:00:00
8:00 PM,26.6,24.8,93,30.45,-9999.0,Calm,Calm,-,N/A,,Clear,0,2012-12-28 19:00:00
9:00 PM,26.6,24.8,93,30.45,-9999.0,East,3.5,-,N/A,,Clear,100,2012-12-28 20:00:00
10:00 PM,24.8,23.0,93,30.45,-9999.0,Calm,Calm,-,N/A,,Clear,0,2012-12-28 21:00:00
11:00 PM,24.8,23.0,93,30.45,-9999.0,East,2.3,-,N/A,,Clear,90,2012-12-28 22:00:00